Hourly Weather Dziadowek

Today, 18 May, Tuesday

Time Temperature Precipitation Wind Pressure Humidity
00:00 +10°C° 0 mm 2 mps 731 mmHg 92%
01:00 +10°C° 0 mm 2 mps 731 mmHg 92%
02:00 +10°C° 0 mm 2 mps 731 mmHg 92%
03:00 +10°C° 0 mm 2 mps 731 mmHg 93%
04:00 +9°C° 0 mm 2 mps 731 mmHg 93%
05:00 +9°C° 0 mm 2 mps 730 mmHg 94%
06:00 +10°C° 0 mm 2 mps 731 mmHg 88%
07:00 +13°C° 0 mm 2 mps 731 mmHg 82%
08:00 +13°C° 0 mm 3 mps 731 mmHg 77%
09:00 +14°C° 0 mm 3 mps 731 mmHg 73%
10:00 +16°C° 0 mm 3 mps 731 mmHg 68%
11:00 +17°C° 0 mm 4 mps 731 mmHg 64%
12:00 +17°C° 0 mm 4 mps 731 mmHg 62%
13:00 +18°C° 0 mm 4 mps 731 mmHg 59%
14:00 +18°C° 0 mm 4 mps 730 mmHg 57%
15:00 +18°C° 0 mm 4 mps 730 mmHg 59%
16:00 +18°C° 0 mm 4 mps 730 mmHg 61%
17:00 +17°C° 0 mm 4 mps 730 mmHg 63%
18:00 +16°C° 0 mm 3 mps 730 mmHg 71%
19:00 +14°C° 0 mm 3 mps 730 mmHg 79%
20:00 +13°C° 0 mm 2 mps 730 mmHg 87%
21:00 +11°C° 0 mm 3 mps 731 mmHg 90%
22:00 +10°C° 0 mm 3 mps 731 mmHg 93%
23:00 +9°C° 0 mm 3 mps 731 mmHg 96%

Tomorrow, 19 May, Wednesday

Time Temperature Precipitation Wind Pressure Humidity
00:00 +9°C° 0 mm 3 mps 731 mmHg 96%
01:00 +8°C° 0 mm 3 mps 731 mmHg 96%
02:00 +7°C° 0 mm 3 mps 731 mmHg 96%
03:00 +7°C° 0 mm 3 mps 731 mmHg 96%
04:00 +7°C° 0 mm 3 mps 731 mmHg 96%
05:00 +7°C° 0 mm 3 mps 731 mmHg 96%
06:00 +7°C° 0 mm 4 mps 732 mmHg 92%
07:00 +8°C° 0 mm 4 mps 732 mmHg 88%
08:00 +10°C° 0 mm 4 mps 733 mmHg 84%
09:00 +9°C° 0 mm 5 mps 733 mmHg 83%
10:00 +9°C° 0 mm 5 mps 733 mmHg 82%
11:00 +10°C° 0 mm 5 mps 734 mmHg 81%
12:00 +10°C° 0.1 mm 5 mps 734 mmHg 79%
13:00 +12°C° 0.1 mm 4 mps 734 mmHg 76%
14:00 +13°C° 0.1 mm 4 mps 734 mmHg 74%
15:00 +13°C° 0.1 mm 4 mps 735 mmHg 73%
16:00 +13°C° 0.1 mm 5 mps 735 mmHg 73%
17:00 +13°C° 0.1 mm 5 mps 735 mmHg 72%
18:00 +12°C° 0.1 mm 4 mps 735 mmHg 78%
19:00 +11°C° 0.1 mm 4 mps 735 mmHg 83%
20:00 +10°C° 0.1 mm 3 mps 736 mmHg 89%
21:00 +9°C° 0 mm 3 mps 736 mmHg 91%
22:00 +8°C° 0 mm 3 mps 736 mmHg 94%
23:00 +6°C° 0 mm 4 mps 736 mmHg 97%

Day after tomorrow, 20 May, Thursday

Time Temperature Precipitation Wind Pressure Humidity
00:00 +5°C° 0 mm 3 mps 736 mmHg 96%
01:00 +4°C° 0 mm 3 mps 736 mmHg 96%
02:00 +4°C° 0 mm 3 mps 737 mmHg 96%
03:00 +3°C° 0 mm 3 mps 737 mmHg 95%
04:00 +3°C° 0 mm 3 mps 737 mmHg 94%
05:00 +4°C° 0 mm 2 mps 737 mmHg 93%
06:00 +5°C° 0 mm 3 mps 737 mmHg 87%
07:00 +8°C° 0 mm 3 mps 737 mmHg 81%
08:00 +9°C° 0 mm 3 mps 737 mmHg 75%
09:00 +11°C° 0 mm 4 mps 737 mmHg 71%
10:00 +12°C° 0 mm 5 mps 737 mmHg 68%
11:00 +14°C° 0 mm 6 mps 737 mmHg 64%
12:00 +14°C° 0 mm 6 mps 737 mmHg 61%
13:00 +14°C° 0 mm 6 mps 737 mmHg 59%
14:00 +15°C° 0 mm 7 mps 737 mmHg 57%
15:00 +14°C° 0 mm 7 mps 738 mmHg 60%
16:00 +12°C° 0 mm 7 mps 738 mmHg 62%
17:00 +12°C° 0 mm 7 mps 738 mmHg 65%
18:00 +10°C° 0 mm 7 mps 738 mmHg 70%
19:00 +9°C° 0 mm 6 mps 738 mmHg 75%
20:00 +8°C° 0 mm 6 mps 738 mmHg 80%
21:00 +7°C° 0 mm 6 mps 738 mmHg 83%
22:00 +5°C° 0 mm 6 mps 738 mmHg 86%
23:00 +3°C° 0 mm 5 mps 738 mmHg 89%

21 May, Friday

Time Temperature Precipitation Wind Pressure Humidity
00:00 +3°C° 0 mm 5 mps 738 mmHg 91%
01:00 +2°C° 0 mm 5 mps 738 mmHg 93%
02:00 +3°C° 0 mm 4 mps 738 mmHg 95%
03:00 +2°C° 0 mm 5 mps 738 mmHg 95%
04:00 +1°C° 0 mm 5 mps 738 mmHg 95%
05:00 +1°C° 0 mm 5 mps 738 mmHg 95%
06:00 +3°C° 0 mm 5 mps 738 mmHg 89%
07:00 +5°C° 0 mm 6 mps 738 mmHg 83%
08:00 +7°C° 0 mm 6 mps 738 mmHg 77%
09:00 +8°C° 0 mm 6 mps 738 mmHg 73%
10:00 +9°C° 0 mm 6 mps 739 mmHg 69%
11:00 +9°C° 0 mm 5 mps 739 mmHg 66%
12:00 +9°C° 0 mm 5 mps 739 mmHg 66%
13:00 +9°C° 0 mm 5 mps 739 mmHg 67%
14:00 +9°C° 0 mm 5 mps 739 mmHg 67%
15:00 +9°C° 0 mm 5 mps 739 mmHg 63%
16:00 +10°C° 0 mm 5 mps 739 mmHg 59%
17:00 +11°C° 0 mm 4 mps 739 mmHg 55%
18:00 +10°C° 0 mm 3 mps 738 mmHg 62%
19:00 +9°C° 0 mm 2 mps 738 mmHg 69%
20:00 +8°C° 0 mm 1 mps 738 mmHg 76%
21:00 +6°C° 0 mm 2 mps 738 mmHg 78%
22:00 +6°C° 0 mm 2 mps 738 mmHg 81%
23:00 +5°C° 0 mm 2 mps 738 mmHg 83%

22 May, Saturday

Time Temperature Precipitation Wind Pressure Humidity
00:00 +4°C° 0 mm 2 mps 738 mmHg 85%
01:00 +3°C° 0 mm 3 mps 737 mmHg 88%
02:00 +2°C° 0 mm 3 mps 737 mmHg 90%
03:00 +3°C° 0 mm 3 mps 737 mmHg 87%
04:00 +3°C° 0 mm 3 mps 737 mmHg 84%
05:00 +3°C° 0 mm 3 mps 737 mmHg 80%
06:00 +5°C° 0 mm 3 mps 737 mmHg 80%
07:00 +7°C° 0 mm 3 mps 737 mmHg 80%
08:00 +8°C° 0 mm 4 mps 737 mmHg 80%
09:00 +8°C° 0 mm 4 mps 737 mmHg 80%
10:00 +10°C° 0 mm 4 mps 737 mmHg 80%
11:00 +10°C° 0 mm 4 mps 736 mmHg 80%
12:00 +12°C° 0.1 mm 5 mps 736 mmHg 73%
13:00 +14°C° 0.1 mm 6 mps 736 mmHg 66%
14:00 +17°C° 0.1 mm 6 mps 736 mmHg 59%
15:00 +16°C° 0.2 mm 6 mps 736 mmHg 63%
16:00 +16°C° 0.2 mm 6 mps 735 mmHg 66%
17:00 +15°C° 0.2 mm 5 mps 735 mmHg 70%
18:00 +14°C° 0.1 mm 5 mps 735 mmHg 73%
19:00 +14°C° 0.1 mm 4 mps 735 mmHg 77%
20:00 +13°C° 0.1 mm 4 mps 735 mmHg 80%
21:00 +12°C° 1.1 mm 4 mps 735 mmHg 85%
22:00 +12°C° 1.1 mm 4 mps 736 mmHg 90%
23:00 +11°C° 1.1 mm 4 mps 736 mmHg 96%

23 May, Sunday

Time Temperature Precipitation Wind Pressure Humidity
00:00 +10°C° 0.6 mm 3 mps 736 mmHg 96%
01:00 +10°C° 0.6 mm 3 mps 736 mmHg 96%
02:00 +9°C° 0.6 mm 2 mps 736 mmHg 96%
03:00 +9°C° 0.2 mm 2 mps 736 mmHg 96%
04:00 +9°C° 0.2 mm 2 mps 735 mmHg 97%
05:00 +9°C° 0.2 mm 2 mps 735 mmHg 97%
06:00 +10°C° 0.9 mm 2 mps 736 mmHg 96%
07:00 +11°C° 0.9 mm 1 mps 736 mmHg 95%
08:00 +11°C° 0.9 mm 1 mps 736 mmHg 94%
09:00 +11°C° 1.4 mm 1 mps 736 mmHg 94%
10:00 +11°C° 1.4 mm 1 mps 736 mmHg 93%
11:00 +10°C° 1.4 mm 2 mps 736 mmHg 92%
12:00 +12°C° 1 mm 2 mps 736 mmHg 89%
13:00 +12°C° 1 mm 2 mps 736 mmHg 85%
14:00 +13°C° 1 mm 2 mps 736 mmHg 82%
15:00 +14°C° 0.2 mm 1 mps 737 mmHg 76%
16:00 +15°C° 0.2 mm 1 mps 737 mmHg 71%
17:00 +16°C° 0.2 mm 1 mps 737 mmHg 65%
18:00 +14°C° 0.2 mm 1 mps 737 mmHg 71%
19:00 +13°C° 0.2 mm 2 mps 737 mmHg 76%
20:00 +12°C° 0.2 mm 2 mps 737 mmHg 82%
21:00 +10°C° 0 mm 2 mps 738 mmHg 85%
22:00 +9°C° 0 mm 2 mps 738 mmHg 88%
23:00 +8°C° 0 mm 2 mps 738 mmHg 91%
Show more